Home > Weather > El Paso > Past weeks

Flag for USA Past Weather in El Paso, Texas, USA — Yesterday and Last 2 Weeks

Now
96 °F

Scattered clouds.


Feels Like: 93 °F
Forecast: 72 / 98 °F
Wind: 14 mph from East

Location: El Paso International Airport

Current Time: Jul 28, 2016 at 6:23:38 PM

Latest Report: Jul 28, 2016 at 5:51 PM


Visibility: 10 mi

Pressure: 29.73 "Hg (26.20 "Hg at 1142m altitude)

Humidity: 21%

Dew Point: 50 °F

Location of El PasoLocation

Past Weather in El Paso — Graph

°F

El Paso Temperature Yesterday

Maximum temperature yesterday: 94 °F (at 3:51 PM)
Minimum temperature yesterday: 75 °F (at 3:51 AM)
Average temperature yesterday: 83 °F

High & Low Weather Summary for the Past Weeks

 TemperatureHumidityPressure
High108 °F (Jul 14, 3:51 PM)74% (Jul 27, 7:51 AM)30.12 "Hg (Jul 27, 7:51 AM)
Low71 °F (Jul 16, 5:51 AM)5% (Jul 14, 1:51 PM)29.62 "Hg (Jul 24, 5:51 PM)
Average89 °F28%29.81 "Hg
* Reported Jul 13 4:51 PM — Jul 28 4:51 PM, El Paso, Weather by CustomWeather, © 2016

Note: Actual official high and low records may vary slightly from our data, if they occured in-between our weather recording intervals... More about our weather records

Advertising

El Paso Weather History for the Previous 24 Hours

Scroll right to see more
 ConditionsComfort  
Time TempWeatherWind HumidityBarometerVisibility
4:51 PM
Thu, Jul 28
97 °FScattered clouds.13 mph22%29.73 "Hg10 mi
3:51 PM96 °FScattered clouds.9 mph22%29.75 "Hg10 mi
2:51 PM97 °FScattered clouds.9 mph18%29.78 "Hg10 mi
1:51 PM95 °FScattered clouds.8 mph20%29.80 "Hg10 mi
12:51 PM95 °FScattered clouds.15 mph21%29.83 "Hg10 mi
11:51 AM92 °FScattered clouds.6 mph29%29.86 "Hg10 mi
10:51 AM90 °FPassing clouds.No wind29%29.88 "Hg10 mi
9:51 AM87 °FPassing clouds.6 mph35%29.88 "Hg10 mi
8:51 AM83 °FPassing clouds.6 mph43%29.89 "Hg10 mi
7:51 AM77 °FPassing clouds.7 mph54%29.88 "Hg10 mi
6:51 AM74 °FPassing clouds.7 mph60%29.86 "Hg10 mi
5:51 AM75 °FPassing clouds.6 mph62%29.83 "Hg10 mi
4:51 AM78 °FPassing clouds.No wind54%29.83 "Hg10 mi
3:51 AM78 °FPassing clouds.3 mph56%29.83 "Hg10 mi
2:51 AM80 °FPassing clouds.3 mph52%29.84 "Hg10 mi
1:51 AM81 °FPassing clouds.3 mph49%29.83 "Hg10 mi
12:51 AM81 °FPassing clouds.No wind49%29.83 "Hg10 mi
11:51 PM
Wed, Jul 27
81 °FPassing clouds.3 mph51%29.84 "Hg10 mi
10:51 PM81 °FPassing clouds.3 mph51%29.84 "Hg10 mi
9:51 PM82 °FPassing clouds.No wind49%29.83 "Hg10 mi
8:51 PM83 °FScattered clouds.6 mph48%29.80 "Hg10 mi
7:51 PM85 °FBroken clouds.8 mph43%29.78 "Hg10 mi
6:51 PM90 °FBroken clouds.10 mph29%29.76 "Hg10 mi
Weather by CustomWeather, © 2016

See weather overviewHow to use our weather pages